{"data":{"norad_id":49397,"epoch":"2026-05-25T02:23:32.534304Z","epoch_age_seconds":65674,"freshness":"FRESH","line1":"1 49397U 21102C   26145.09968211  .00005881  00000+0  26648-3 0  9992","line2":"2 49397  97.3272 178.7300 0008855  18.1024 342.0525 15.21192054249929","mean_motion":15.21192054,"eccentricity":0.0008855,"inclination_deg":97.3272,"raan_deg":178.73,"arg_perigee_deg":18.1024,"mean_anomaly_deg":342.0525,"bstar":0.00026648,"rev_number":24992,"period_min":94.662603332268,"perigee_km":496.15123223586,"apogee_km":508.33638664938,"semimajor_km":6880.3808094426,"source":"CELESTRAK","updated_at":"2026-05-25T13:37:57.193753Z"}}